Time,TemperatureF,DewpointF,PressureIn,WindDirection,WindDirectionDegrees,WindSpeedMPH,WindSpeedGustMPH,Humidity,HourlyPrecipIn,Conditions,Clouds,dailyrainin,SolarRadiationWatts/m^2,SoftwareType,DateUTC
2013-04-09 00:00:00,23.5,19.9,29.58,NNW,338,0.0,0.0,86,0.00,,,0.19,32767.00,ALWS 1.0-beta,2013-04-09 06:00:00,
2013-04-09 00:05:00,23.4,19.8,29.58,West,265,2.0,5.0,86,0.00,,,0.00,32767.00,ALWS 1.0-beta,2013-04-09 06:05:00,
2013-04-09 00:10:00,22.9,19.4,29.58,West,265,7.0,13.0,86,0.00,,,0.00,32767.00,ALWS 1.0-beta,2013-04-09 06:10:00,
2013-04-09 00:15:00,22.7,19.1,29.59,West,268,8.0,18.0,86,0.00,,,0.00,32767.00,ALWS 1.0-beta,2013-04-09 06:15:00,
2013-04-09 00:20:00,22.7,19.1,29.59,WSW,250,3.0,8.0,86,0.00,,,0.00,32767.00,ALWS 1.0-beta,2013-04-09 06:20:00,
2013-04-09 00:25:00,23.0,19.5,29.60,WSW,252,0.0,0.0,86,0.00,,,0.00,32767.00,ALWS 1.0-beta,2013-04-09 06:25:00,
2013-04-09 00:30:00,23.1,19.5,29.60,WSW,252,0.0,0.0,86,0.00,,,0.00,32767.00,ALWS 1.0-beta,2013-04-09 06:30:00,
2013-04-09 00:35:00,23.1,19.5,29.61,WSW,253,3.0,3.0,86,0.00,,,0.00,32767.00,ALWS 1.0-beta,2013-04-09 06:35:00,
2013-04-09 00:40:00,22.9,19.1,29.62,WNW,283,11.0,12.0,85,0.00,,,0.00,32767.00,ALWS 1.0-beta,2013-04-09 06:40:00,
2013-04-09 00:45:00,22.6,18.8,29.62,West,265,3.0,4.0,85,0.00,,,0.00,32767.00,ALWS 1.0-beta,2013-04-09 06:45:00,
2013-04-09 00:50:00,22.4,18.6,29.62,SSW,209,3.0,4.0,85,0.00,,,0.00,32767.00,ALWS 1.0-beta,2013-04-09 06:50:00,
2013-04-09 00:55:00,22.4,18.6,29.63,SSW,209,0.0,0.0,85,0.00,,,0.00,32767.00,ALWS 1.0-beta,2013-04-09 06:55:00,
2013-04-09 01:00:00,22.5,18.7,29.63,West,271,1.0,1.0,85,0.00,,,0.00,32767.00,ALWS 1.0-beta,2013-04-09 07:00:00,
2013-04-09 01:05:00,22.5,18.7,29.63,South,172,3.0,3.0,85,0.00,,,0.00,32767.00,ALWS 1.0-beta,2013-04-09 07:05:00,
2013-04-09 01:10:00,22.5,18.7,29.64,SSE,152,0.0,0.0,85,0.00,,,0.00,32767.00,ALWS 1.0-beta,2013-04-09 07:10:00,
2013-04-09 01:15:00,22.5,18.7,29.65,SE,140,0.0,3.0,85,0.00,,,0.00,32767.00,ALWS 1.0-beta,2013-04-09 07:15:00,
2013-04-09 01:20:00,22.5,18.7,29.65,SSE,150,0.0,1.0,85,0.00,,,0.00,32767.00,ALWS 1.0-beta,2013-04-09 07:20:00,
2013-04-09 01:25:00,22.3,18.5,29.66,ENE,70,3.0,4.0,85,0.00,,,0.00,32767.00,ALWS 1.0-beta,2013-04-09 07:25:00,
2013-04-09 01:30:00,22.1,18.0,29.66,East,83,2.0,4.0,84,0.00,,,0.00,32767.00,ALWS 1.0-beta,2013-04-09 07:30:00,
2013-04-09 01:35:00,21.8,17.7,29.67,ENE,71,3.0,6.0,84,0.00,,,0.00,32767.00,ALWS 1.0-beta,2013-04-09 07:35:00,
2013-04-09 01:40:00,21.6,17.5,29.67,ENE,60,2.0,8.0,84,0.00,,,0.00,32767.00,ALWS 1.0-beta,2013-04-09 07:40:00,
2013-04-09 01:45:00,21.4,17.3,29.67,ENE,67,4.0,7.0,84,0.00,,,0.00,32767.00,ALWS 1.0-beta,2013-04-09 07:45:00,
2013-04-09 01:50:00,21.3,17.2,29.67,NE,41,0.0,6.0,84,0.00,,,0.00,32767.00,ALWS 1.0-beta,2013-04-09 07:50:00,
2013-04-09 01:55:00,21.3,17.2,29.67,North,360,3.0,10.0,84,0.00,,,0.00,32767.00,ALWS 1.0-beta,2013-04-09 07:55:00,
2013-04-09 02:00:00,21.2,17.1,29.68,WNW,296,4.0,6.0,84,0.00,,,0.00,32767.00,ALWS 1.0-beta,2013-04-09 08:00:00,
2013-04-09 02:05:00,21.0,16.9,29.68,WNW,283,3.0,4.0,84,0.00,,,0.00,32767.00,ALWS 1.0-beta,2013-04-09 08:05:00,
2013-04-09 02:10:00,20.9,16.8,29.69,WNW,282,0.0,3.0,84,0.00,,,0.00,32767.00,ALWS 1.0-beta,2013-04-09 08:10:00,
2013-04-09 02:15:00,21.0,17.2,29.69,WNW,283,0.0,0.0,85,0.00,,,0.00,32767.00,ALWS 1.0-beta,2013-04-09 08:15:00,
2013-04-09 02:20:00,21.0,17.2,29.69,WNW,297,0.0,2.0,85,0.00,,,0.00,32767.00,ALWS 1.0-beta,2013-04-09 08:20:00,
2013-04-09 02:25:00,20.9,17.1,29.69,NNE,28,3.0,4.0,85,0.00,,,0.00,32767.00,ALWS 1.0-beta,2013-04-09 08:25:00,
2013-04-09 02:30:00,20.7,16.9,29.70,NE,52,2.0,4.0,85,0.00,,,0.00,32767.00,ALWS 1.0-beta,2013-04-09 08:30:00,
2013-04-09 02:35:00,20.6,16.5,29.70,NE,53,3.0,5.0,84,0.00,,,0.00,32767.00,ALWS 1.0-beta,2013-04-09 08:35:00,
2013-04-09 02:40:00,20.4,16.4,29.70,ENE,70,9.0,9.0,84,0.00,,,0.00,32767.00,ALWS 1.0-beta,2013-04-09 08:40:00,
2013-04-09 02:45:00,20.2,16.1,29.70,ENE,74,5.0,10.0,84,0.00,,,0.00,32767.00,ALWS 1.0-beta,2013-04-09 08:45:00,
2013-04-09 02:50:00,20.1,15.8,29.71,ENE,71,3.0,11.0,83,0.00,,,0.00,32767.00,ALWS 1.0-beta,2013-04-09 08:50:00,
2013-04-09 02:55:00,20.0,15.4,29.72,East,84,2.0,11.0,82,0.00,,,0.00,32767.00,ALWS 1.0-beta,2013-04-09 08:55:00,
2013-04-09 03:00:00,20.0,15.1,29.72,ENE,59,7.0,12.0,81,0.00,,,0.00,32767.00,ALWS 1.0-beta,2013-04-09 09:00:00,
2013-04-09 03:05:00,20.0,14.8,29.72,ENE,63,5.0,10.0,80,0.00,,,0.00,32767.00,ALWS 1.0-beta,2013-04-09 09:05:00,
2013-04-09 03:10:00,20.0,14.6,29.72,ENE,69,3.0,12.0,79,0.00,,,0.00,32767.00,ALWS 1.0-beta,2013-04-09 09:10:00,
2013-04-09 03:15:00,20.0,14.3,29.72,ENE,61,9.0,13.0,78,0.00,,,0.00,32767.00,ALWS 1.0-beta,2013-04-09 09:15:00,
2013-04-09 03:21:00,19.9,13.9,29.73,East,96,4.0,10.0,77,0.00,,,0.00,32767.00,ALWS 1.0-beta,2013-04-09 09:21:00,
2013-04-09 03:26:00,20.0,14.3,29.74,ENE,72,1.0,6.0,78,0.00,,,0.00,32767.00,ALWS 1.0-beta,2013-04-09 09:26:00,
2013-04-09 03:31:00,19.9,14.2,29.74,ESE,109,0.0,5.0,78,0.00,,,0.00,32767.00,ALWS 1.0-beta,2013-04-09 09:31:00,
2013-04-09 03:36:00,19.8,14.1,29.74,ENE,68,5.0,6.0,78,0.00,,,0.00,32767.00,ALWS 1.0-beta,2013-04-09 09:36:00,
2013-04-09 03:41:00,19.7,14.0,29.74,North,349,0.0,9.0,78,0.00,,,0.00,32767.00,ALWS 1.0-beta,2013-04-09 09:41:00,
2013-04-09 03:46:00,19.7,14.0,29.74,ENE,69,0.0,5.0,78,0.00,,,0.00,32767.00,ALWS 1.0-beta,2013-04-09 09:46:00,
2013-04-09 03:51:00,19.7,14.0,29.75,NNW,337,3.0,3.0,78,0.00,,,0.00,32767.00,ALWS 1.0-beta,2013-04-09 09:51:00,
2013-04-09 03:56:00,19.5,14.1,29.75,SW,227,1.0,6.0,79,0.00,,,0.00,32767.00,ALWS 1.0-beta,2013-04-09 09:56:00,
2013-04-09 04:01:00,19.3,13.9,29.75,West,279,1.0,3.0,79,0.00,,,0.00,32767.00,ALWS 1.0-beta,2013-04-09 10:01:00,
2013-04-09 04:06:00,19.2,14.1,29.75,West,271,4.0,6.0,80,0.00,,,0.00,32767.00,ALWS 1.0-beta,2013-04-09 10:06:00,
2013-04-09 04:11:00,18.9,13.8,29.75,West,271,3.0,6.0,80,0.00,,,0.00,32767.00,ALWS 1.0-beta,2013-04-09 10:11:00,
2013-04-09 04:16:00,18.7,13.6,29.76,West,259,4.0,7.0,80,0.00,,,0.00,32767.00,ALWS 1.0-beta,2013-04-09 10:16:00,
2013-04-09 04:21:00,18.6,13.5,29.76,West,269,5.0,7.0,80,0.00,,,0.00,32767.00,ALWS 1.0-beta,2013-04-09 10:21:00,
2013-04-09 04:26:00,18.6,13.8,29.77,West,275,3.0,5.0,81,0.00,,,0.00,32767.00,ALWS 1.0-beta,2013-04-09 10:26:00,
2013-04-09 04:30:00,18.7,13.9,29.77,West,270,0.0,3.0,81,0.00,,,0.00,32767.00,ALWS 1.0-beta,2013-04-09 10:30:00,
2013-04-09 04:35:00,18.8,13.7,29.78,West,270,0.0,0.0,80,0.00,,,0.00,32767.00,ALWS 1.0-beta,2013-04-09 10:35:00,
2013-04-09 04:40:00,18.8,13.7,29.78,West,273,0.0,2.0,80,0.00,,,0.00,32767.00,ALWS 1.0-beta,2013-04-09 10:40:00,
2013-04-09 04:45:00,18.8,13.9,29.78,WNW,286,0.0,0.0,81,0.00,,,0.00,32767.00,ALWS 1.0-beta,2013-04-09 10:45:00,
2013-04-09 04:51:00,19.0,14.1,29.79,WNW,285,0.0,0.0,81,0.00,,,0.00,32767.00,ALWS 1.0-beta,2013-04-09 10:51:00,
2013-04-09 04:56:00,19.2,14.3,29.79,WNW,285,0.0,0.0,81,0.00,,,0.00,32767.00,ALWS 1.0-beta,2013-04-09 10:56:00,
2013-04-09 05:02:00,19.1,14.2,29.80,WSW,242,0.0,0.0,81,0.00,,,0.00,32767.00,ALWS 1.0-beta,2013-04-09 11:02:00,
2013-04-09 05:07:00,19.1,14.0,29.80,WSW,242,0.0,0.0,80,0.00,,,0.00,32767.00,ALWS 1.0-beta,2013-04-09 11:07:00,
2013-04-09 05:12:00,19.0,14.1,29.81,SW,224,3.0,4.0,81,0.00,,,0.00,32767.00,ALWS 1.0-beta,2013-04-09 11:12:00,
2013-04-09 05:17:00,18.8,13.9,29.81,SW,222,0.0,4.0,81,0.00,,,0.00,32767.00,ALWS 1.0-beta,2013-04-09 11:17:00,
2013-04-09 05:22:00,18.7,13.9,29.81,SW,222,3.0,3.0,81,0.00,,,0.00,32767.00,ALWS 1.0-beta,2013-04-09 11:22:00,
2013-04-09 05:27:00,18.5,13.9,29.82,West,280,3.0,3.0,82,0.00,,,0.00,32767.00,ALWS 1.0-beta,2013-04-09 11:27:00,
2013-04-09 05:32:00,18.2,13.6,29.82,West,277,6.0,6.0,82,0.00,,,0.00,32767.00,ALWS 1.0-beta,2013-04-09 11:32:00,
2013-04-09 05:37:00,18.1,13.5,29.82,North,360,5.0,5.0,82,0.00,,,0.00,32767.00,ALWS 1.0-beta,2013-04-09 11:37:00,
2013-04-09 05:42:00,17.9,13.4,29.83,WNW,288,6.0,6.0,82,0.00,,,0.00,32767.00,ALWS 1.0-beta,2013-04-09 11:42:00,
2013-04-09 05:47:00,17.8,13.5,29.83,West,271,5.0,5.0,83,0.00,,,0.00,32767.00,ALWS 1.0-beta,2013-04-09 11:47:00,
2013-04-09 05:52:00,17.9,13.6,29.84,North,360,9.0,9.0,83,0.00,,,0.00,32767.00,ALWS 1.0-beta,2013-04-09 11:52:00,
2013-04-09 05:57:00,17.8,13.5,29.84,WNW,297,10.0,10.0,83,0.00,,,0.00,32767.00,ALWS 1.0-beta,2013-04-09 11:57:00,
2013-04-09 06:02:00,17.8,13.8,29.85,WNW,296,6.0,6.0,84,0.00,,,0.00,32767.00,ALWS 1.0-beta,2013-04-09 12:02:00,
2013-04-09 06:07:00,17.8,13.8,29.85,WNW,295,5.0,5.0,84,0.00,,,0.00,32767.00,ALWS 1.0-beta,2013-04-09 12:07:00,
2013-04-09 06:12:00,17.8,13.8,29.85,WNW,302,5.0,7.0,84,0.00,,,0.00,32767.00,ALWS 1.0-beta,2013-04-09 12:12:00,
2013-04-09 06:17:00,17.8,13.8,29.86,WNW,302,3.0,6.0,84,0.00,,,0.00,32767.00,ALWS 1.0-beta,2013-04-09 12:17:00,
2013-04-09 06:22:00,17.9,13.9,29.86,WNW,302,2.0,4.0,84,0.00,,,0.00,32767.00,ALWS 1.0-beta,2013-04-09 12:22:00,
2013-04-09 06:27:00,17.9,13.9,29.87,WNW,302,1.0,1.0,84,0.00,,,0.00,32767.00,ALWS 1.0-beta,2013-04-09 12:27:00,
2013-04-09 06:32:00,18.0,16.1,29.87,WNW,302,0.0,0.0,92,0.00,,,0.00,32767.00,ALWS 1.0-beta,2013-04-09 12:32:00,
2013-04-09 06:37:00,18.1,14.1,29.88,WNW,302,0.0,0.0,84,0.00,,,0.00,32767.00,ALWS 1.0-beta,2013-04-09 12:37:00,
2013-04-09 06:42:00,18.1,14.1,29.88,WNW,302,0.0,0.0,84,0.00,,,0.00,32767.00,ALWS 1.0-beta,2013-04-09 12:42:00,
2013-04-09 06:47:00,18.2,14.2,29.89,WNW,302,0.0,0.0,84,0.00,,,0.00,32767.00,ALWS 1.0-beta,2013-04-09 12:47:00,
2013-04-09 06:52:00,18.1,14.1,29.89,WNW,302,2.0,6.0,84,0.00,,,0.00,32767.00,ALWS 1.0-beta,2013-04-09 12:52:00,
2013-04-09 06:57:00,18.1,14.1,29.90,WNW,302,0.0,4.0,84,0.00,,,0.00,32767.00,ALWS 1.0-beta,2013-04-09 12:57:00,
2013-04-09 07:02:00,18.2,14.2,29.90,WNW,302,0.0,0.0,84,0.00,,,0.00,32767.00,ALWS 1.0-beta,2013-04-09 13:02:00,
2013-04-09 07:07:00,18.2,14.5,29.90,WNW,302,3.0,4.0,85,0.00,,,0.00,32767.00,ALWS 1.0-beta,2013-04-09 13:07:00,
2013-04-09 07:12:00,18.1,14.1,29.91,North,360,7.0,7.0,84,0.00,,,0.00,32767.00,ALWS 1.0-beta,2013-04-09 13:12:00,
2013-04-09 07:17:00,17.7,13.7,29.91,WNW,286,7.0,10.0,84,0.00,,,0.00,32767.00,ALWS 1.0-beta,2013-04-09 13:17:00,
2013-04-09 07:22:00,17.5,13.5,29.92,WNW,292,10.0,10.0,84,0.00,,,0.00,32767.00,ALWS 1.0-beta,2013-04-09 13:22:00,
2013-04-09 07:27:00,17.3,13.3,29.92,North,360,7.0,12.0,84,0.00,,,0.00,32767.00,ALWS 1.0-beta,2013-04-09 13:27:00,
2013-04-09 07:32:00,17.2,15.3,29.92,WNW,297,3.0,6.0,92,0.00,,,0.00,32767.00,ALWS 1.0-beta,2013-04-09 13:32:00,
2013-04-09 07:37:00,17.3,13.3,29.93,WNW,298,0.0,4.0,84,0.00,,,0.00,32767.00,ALWS 1.0-beta,2013-04-09 13:37:00,
2013-04-09 07:42:00,17.4,13.4,29.94,WNW,298,2.0,3.0,84,0.00,,,0.00,32767.00,ALWS 1.0-beta,2013-04-09 13:42:00,
2013-04-09 07:47:00,17.5,13.5,29.94,WNW,297,4.0,4.0,84,0.00,,,0.00,32767.00,ALWS 1.0-beta,2013-04-09 13:47:00,
2013-04-09 07:53:00,17.5,13.5,29.94,WNW,294,0.0,4.0,84,0.00,,,0.00,32767.00,ALWS 1.0-beta,2013-04-09 13:53:00,
2013-04-09 07:58:00,17.6,13.6,29.94,WSW,244,4.0,4.0,84,0.00,,,0.00,32767.00,ALWS 1.0-beta,2013-04-09 13:58:00,
2013-04-09 08:03:00,17.6,13.6,29.95,SW,234,3.0,4.0,84,0.00,,,0.00,32767.00,ALWS 1.0-beta,2013-04-09 14:03:00,
2013-04-09 08:08:00,17.7,13.7,29.95,SW,234,0.0,3.0,84,0.00,,,0.00,32767.00,ALWS 1.0-beta,2013-04-09 14:08:00,
2013-04-09 08:13:00,17.8,13.8,29.96,SW,234,0.0,3.0,84,0.00,,,0.00,32767.00,ALWS 1.0-beta,2013-04-09 14:13:00,
2013-04-09 08:18:00,17.9,13.6,29.96,SW,235,0.0,4.0,83,0.00,,,0.00,32767.00,ALWS 1.0-beta,2013-04-09 14:18:00,
2013-04-09 08:23:00,18.0,13.7,29.96,SW,235,0.0,0.0,83,0.00,,,0.00,32767.00,ALWS 1.0-beta,2013-04-09 14:23:00,
2013-04-09 08:28:00,18.1,13.8,29.97,SW,236,1.0,1.0,83,0.00,,,0.00,32767.00,ALWS 1.0-beta,2013-04-09 14:28:00,
2013-04-09 08:33:00,18.1,13.8,29.97,ESE,105,0.0,4.0,83,0.00,,,0.00,32767.00,ALWS 1.0-beta,2013-04-09 14:33:00,
2013-04-09 08:38:00,18.2,13.9,29.97,SE,128,2.0,6.0,83,0.00,,,0.00,32767.00,ALWS 1.0-beta,2013-04-09 14:38:00,
2013-04-09 08:43:00,18.4,13.8,29.97,SE,142,2.0,5.0,82,0.00,,,0.00,32767.00,ALWS 1.0-beta,2013-04-09 14:43:00,
2013-04-09 08:48:00,18.6,14.0,29.98,SE,145,3.0,4.0,82,0.00,,,0.00,32767.00,ALWS 1.0-beta,2013-04-09 14:48:00,
2013-04-09 08:53:00,18.7,13.9,29.98,WNW,296,4.0,7.0,81,0.00,,,0.00,32767.00,ALWS 1.0-beta,2013-04-09 14:53:00,
2013-04-09 08:58:00,18.5,13.6,29.98,West,272,2.0,5.0,81,0.00,,,0.00,32767.00,ALWS 1.0-beta,2013-04-09 14:58:00,
2013-04-09 09:03:00,18.6,13.8,29.98,West,273,2.0,3.0,81,0.00,,,0.00,32767.00,ALWS 1.0-beta,2013-04-09 15:03:00,
2013-04-09 09:08:00,18.8,13.9,29.99,West,268,3.0,4.0,81,0.00,,,0.00,32767.00,ALWS 1.0-beta,2013-04-09 15:08:00,
2013-04-09 09:12:00,18.7,13.9,29.99,North,360,4.0,4.0,81,0.00,,,0.00,32767.00,ALWS 1.0-beta,2013-04-09 15:12:00,
2013-04-09 09:17:00,18.9,14.0,29.99,West,268,4.0,5.0,81,0.00,,,0.00,32767.00,ALWS 1.0-beta,2013-04-09 15:17:00,
2013-04-09 09:23:00,19.0,14.1,29.99,West,268,3.0,5.0,81,0.00,,,0.00,32767.00,ALWS 1.0-beta,2013-04-09 15:23:00,
2013-04-09 09:28:00,19.2,14.3,29.99,West,268,0.0,2.0,81,0.00,,,0.00,32767.00,ALWS 1.0-beta,2013-04-09 15:28:00,
2013-04-09 09:32:00,19.7,15.1,30.00,North,360,0.0,0.0,82,0.00,,,0.00,32767.00,ALWS 1.0-beta,2013-04-09 15:32:00,
2013-04-09 09:37:00,20.0,15.4,30.00,West,268,2.0,4.0,82,0.00,,,0.00,32767.00,ALWS 1.0-beta,2013-04-09 15:37:00,
2013-04-09 09:43:00,20.1,15.2,30.00,West,268,4.0,5.0,81,0.00,,,0.00,32767.00,ALWS 1.0-beta,2013-04-09 15:43:00,
2013-04-09 09:48:00,20.0,15.1,30.00,West,268,3.0,3.0,81,0.00,,,0.00,32767.00,ALWS 1.0-beta,2013-04-09 15:48:00,
2013-04-09 09:53:00,20.1,14.9,30.01,North,360,2.0,2.0,80,0.00,,,0.00,32767.00,ALWS 1.0-beta,2013-04-09 15:53:00,
2013-04-09 09:58:00,20.3,15.1,30.00,West,268,4.0,4.0,80,0.00,,,0.00,32767.00,ALWS 1.0-beta,2013-04-09 15:58:00,
2013-04-09 10:03:00,20.4,15.2,30.01,West,269,0.0,3.0,80,0.00,,,0.00,32767.00,ALWS 1.0-beta,2013-04-09 16:03:00,
2013-04-09 10:08:00,20.7,15.2,30.01,West,268,5.0,5.0,79,0.00,,,0.00,32767.00,ALWS 1.0-beta,2013-04-09 16:08:00,
2013-04-09 10:13:00,20.6,14.8,30.01,WSW,252,3.0,6.0,78,0.00,,,0.00,32767.00,ALWS 1.0-beta,2013-04-09 16:13:00,
2013-04-09 10:18:00,20.5,14.7,30.02,West,268,2.0,4.0,78,0.00,,,0.00,32767.00,ALWS 1.0-beta,2013-04-09 16:18:00,
2013-04-09 10:23:00,21.0,15.2,30.02,West,268,0.0,0.0,78,0.00,,,0.00,32767.00,ALWS 1.0-beta,2013-04-09 16:23:00,
2013-04-09 10:28:00,21.5,15.7,30.02,NNE,19,0.0,0.0,78,0.00,,,0.00,32767.00,ALWS 1.0-beta,2013-04-09 16:28:00,
2013-04-09 10:33:00,21.6,15.2,30.03,North,360,2.0,4.0,76,0.00,,,0.00,32767.00,ALWS 1.0-beta,2013-04-09 16:33:00,
2013-04-09 10:38:00,21.8,15.4,30.03,NW,317,2.0,4.0,76,0.00,,,0.00,32767.00,ALWS 1.0-beta,2013-04-09 16:38:00,
2013-04-09 10:43:00,21.9,15.5,30.04,North,5,0.0,5.0,76,0.00,,,0.00,32767.00,ALWS 1.0-beta,2013-04-09 16:43:00,
2013-04-09 10:48:00,21.3,14.0,30.03,ENE,74,13.0,13.0,73,0.00,,,0.00,32767.00,ALWS 1.0-beta,2013-04-09 16:48:00,
2013-04-09 10:53:00,21.0,14.0,30.04,NNE,32,9.0,11.0,74,0.00,,,0.00,32767.00,ALWS 1.0-beta,2013-04-09 16:53:00,
2013-04-09 10:58:00,21.0,13.7,30.05,NNE,22,2.0,7.0,73,0.00,,,0.00,32767.00,ALWS 1.0-beta,2013-04-09 16:58:00,
2013-04-09 11:03:00,20.8,13.2,30.05,NNE,33,11.0,13.0,72,0.00,,,0.00,32767.00,ALWS 1.0-beta,2013-04-09 17:03:00,
2013-04-09 11:08:00,20.5,12.9,30.05,East,83,8.0,15.0,72,0.00,,,0.00,32767.00,ALWS 1.0-beta,2013-04-09 17:08:00,
2013-04-09 11:14:00,20.4,12.5,30.05,NNE,32,14.0,14.0,71,0.00,,,0.00,32767.00,ALWS 1.0-beta,2013-04-09 17:14:00,
2013-04-09 11:19:00,20.4,12.5,30.06,NE,38,11.0,22.0,71,0.00,,,0.00,32767.00,ALWS 1.0-beta,2013-04-09 17:19:00,
2013-04-09 11:24:00,20.7,12.8,30.07,NE,38,12.0,12.0,71,0.00,,,0.00,32767.00,ALWS 1.0-beta,2013-04-09 17:24:00,
2013-04-09 11:29:00,20.9,12.7,30.07,NE,51,5.0,16.0,70,0.00,,,0.00,32767.00,ALWS 1.0-beta,2013-04-09 17:29:00,
2013-04-09 11:34:00,21.6,13.3,30.07,NE,46,10.0,11.0,70,0.00,,,0.00,32767.00,ALWS 1.0-beta,2013-04-09 17:34:00,
2013-04-09 11:39:00,22.0,13.7,30.08,NNW,331,0.0,13.0,70,0.00,,,0.00,32767.00,ALWS 1.0-beta,2013-04-09 17:39:00,
2013-04-09 11:44:00,22.5,14.2,30.08,NW,304,4.0,4.0,70,0.00,,,0.00,32767.00,ALWS 1.0-beta,2013-04-09 17:44:00,
2013-04-09 11:50:00,22.9,14.6,30.08,NW,304,3.0,3.0,70,0.00,,,0.00,32767.00,ALWS 1.0-beta,2013-04-09 17:50:00,
2013-04-09 11:55:00,23.5,14.8,30.07,WNW,303,0.0,0.0,69,0.00,,,0.00,32767.00,ALWS 1.0-beta,2013-04-09 17:55:00,
2013-04-09 12:00:00,24.3,15.6,30.08,NW,304,0.0,0.0,69,0.00,,,0.00,32767.00,ALWS 1.0-beta,2013-04-09 18:00:00,
2013-04-09 12:05:00,24.8,16.1,30.07,WNW,297,3.0,3.0,69,0.00,,,0.00,32767.00,ALWS 1.0-beta,2013-04-09 18:05:00,
2013-04-09 12:10:00,25.3,16.6,30.08,NE,45,3.0,3.0,69,0.00,,,0.01,32767.00,ALWS 1.0-beta,2013-04-09 18:10:00,
2013-04-09 12:15:00,25.7,16.3,30.08,ENE,78,8.0,8.0,67,0.08,,,0.02,32767.00,ALWS 1.0-beta,2013-04-09 18:15:00,
2013-04-09 12:20:00,24.5,14.4,30.08,NE,43,13.0,24.0,65,0.08,,,0.02,32767.00,ALWS 1.0-beta,2013-04-09 18:20:00,
2013-04-09 12:25:00,23.7,13.7,30.08,North,9,16.0,22.0,65,0.08,,,0.03,32767.00,ALWS 1.0-beta,2013-04-09 18:25:00,
2013-04-09 12:30:00,23.7,14.4,30.08,North,11,12.0,17.0,67,0.08,,,0.04,32767.00,ALWS 1.0-beta,2013-04-09 18:30:00,
2013-04-09 12:35:00,23.8,14.1,30.08,North,5,10.0,17.0,66,0.08,,,0.04,32767.00,ALWS 1.0-beta,2013-04-09 18:35:00,
2013-04-09 12:40:00,23.5,13.8,30.08,NNE,30,16.0,22.0,66,0.06,,,0.05,32767.00,ALWS 1.0-beta,2013-04-09 18:40:00,
2013-04-09 12:45:00,23.4,13.7,30.08,North,5,11.0,23.0,66,0.06,,,0.05,32767.00,ALWS 1.0-beta,2013-04-09 18:45:00,
2013-04-09 12:50:00,23.3,13.6,30.08,North,360,16.0,22.0,66,0.05,,,0.05,32767.00,ALWS 1.0-beta,2013-04-09 18:50:00,
2013-04-09 12:55:00,23.3,13.3,30.08,North,355,12.0,20.0,65,0.04,,,0.05,32767.00,ALWS 1.0-beta,2013-04-09 18:55:00,
2013-04-09 13:00:00,23.5,13.5,30.08,NNE,24,21.0,24.0,65,0.00,,,0.05,32767.00,ALWS 1.0-beta,2013-04-09 19:00:00,
2013-04-09 13:05:00,23.7,14.0,30.08,NNE,30,9.0,20.0,66,0.00,,,0.05,32767.00,ALWS 1.0-beta,2013-04-09 19:05:00,
2013-04-09 13:10:00,23.9,13.9,30.08,NE,34,12.0,19.0,65,0.00,,,0.05,32767.00,ALWS 1.0-beta,2013-04-09 19:10:00,
2013-04-09 13:15:00,23.9,13.9,30.07,NNE,28,15.0,21.0,65,0.00,,,0.05,32767.00,ALWS 1.0-beta,2013-04-09 19:15:00,
2013-04-09 13:20:00,24.2,14.1,30.08,North,5,15.0,22.0,65,0.00,,,0.05,32767.00,ALWS 1.0-beta,2013-04-09 19:20:00,
2013-04-09 13:25:00,24.1,14.1,30.08,North,360,14.0,19.0,65,0.00,,,0.05,32767.00,ALWS 1.0-beta,2013-04-09 19:25:00,
2013-04-09 13:30:00,23.8,13.8,30.08,NE,46,13.0,16.0,65,0.00,,,0.05,32767.00,ALWS 1.0-beta,2013-04-09 19:30:00,
2013-04-09 13:35:00,23.5,13.1,30.08,NNE,18,17.0,33.0,64,0.00,,,0.05,32767.00,ALWS 1.0-beta,2013-04-09 19:35:00,
2013-04-09 13:40:00,23.3,12.9,30.08,North,355,13.0,22.0,64,0.00,,,0.05,32767.00,ALWS 1.0-beta,2013-04-09 19:40:00,
2013-04-09 13:45:00,23.4,13.0,30.08,NE,47,23.0,25.0,64,0.00,,,0.05,32767.00,ALWS 1.0-beta,2013-04-09 19:45:00,
2013-04-09 13:50:00,23.3,13.3,30.08,NNE,33,17.0,28.0,65,0.00,,,0.05,32767.00,ALWS 1.0-beta,2013-04-09 19:50:00,
2013-04-09 13:55:00,23.6,13.6,30.09,NNE,15,13.0,27.0,65,0.00,,,0.05,32767.00,ALWS 1.0-beta,2013-04-09 19:55:00,
2013-04-09 14:00:00,23.9,13.9,30.09,NNE,33,15.0,24.0,65,0.00,,,0.05,32767.00,ALWS 1.0-beta,2013-04-09 20:00:00,
2013-04-09 14:05:00,23.8,13.4,30.09,NNE,30,24.0,28.0,64,0.00,,,0.05,32767.00,ALWS 1.0-beta,2013-04-09 20:05:00,
2013-04-09 14:10:00,23.6,13.6,30.08,NE,38,13.0,27.0,65,0.00,,,0.05,32767.00,ALWS 1.0-beta,2013-04-09 20:10:00,
2013-04-09 14:15:00,23.9,13.9,30.09,NE,42,16.0,26.0,65,0.00,,,0.05,32767.00,ALWS 1.0-beta,2013-04-09 20:15:00,
2013-04-09 14:20:00,24.0,13.2,30.08,North,5,21.0,26.0,63,0.00,,,0.05,32767.00,ALWS 1.0-beta,2013-04-09 20:20:00,
2013-04-09 14:25:00,24.0,13.2,30.09,NE,52,17.0,30.0,63,0.00,,,0.05,32767.00,ALWS 1.0-beta,2013-04-09 20:25:00,
2013-04-09 14:30:00,24.0,12.9,30.09,ENE,57,19.0,24.0,62,0.00,,,0.05,32767.00,ALWS 1.0-beta,2013-04-09 20:30:00,
2013-04-09 14:37:00,24.2,13.4,30.09,NE,34,21.0,25.0,63,0.00,,,0.05,32767.00,ALWS 1.0-beta,2013-04-09 20:37:00,
2013-04-09 14:42:00,24.2,13.1,30.09,NE,40,15.0,28.0,62,0.00,,,0.05,32767.00,ALWS 1.0-beta,2013-04-09 20:42:00,
2013-04-09 14:47:00,24.2,12.7,30.10,NE,41,25.0,27.0,61,0.00,,,0.05,32767.00,ALWS 1.0-beta,2013-04-09 20:47:00,
2013-04-09 14:52:00,24.7,13.2,30.10,NNE,32,15.0,23.0,61,0.00,,,0.05,32767.00,ALWS 1.0-beta,2013-04-09 20:52:00,
2013-04-09 14:57:00,25.0,13.8,30.11,NNE,31,22.0,25.0,62,0.00,,,0.05,32767.00,ALWS 1.0-beta,2013-04-09 20:57:00,
2013-04-09 15:02:00,25.0,13.1,30.11,NE,38,13.0,26.0,60,0.00,,,0.05,32767.00,ALWS 1.0-beta,2013-04-09 21:02:00,
2013-04-09 15:07:00,25.2,13.3,30.11,NNE,28,20.0,20.0,60,0.00,,,0.05,32767.00,ALWS 1.0-beta,2013-04-09 21:07:00,
2013-04-09 15:12:00,25.1,13.2,30.11,North,11,8.0,22.0,60,0.00,,,0.05,32767.00,ALWS 1.0-beta,2013-04-09 21:12:00,
2013-04-09 15:17:00,25.6,13.7,30.11,NE,46,20.0,20.0,60,0.00,,,0.05,32767.00,ALWS 1.0-beta,2013-04-09 21:17:00,
2013-04-09 15:22:00,25.6,13.3,30.11,NNE,12,12.0,12.0,59,0.00,,,0.05,32767.00,ALWS 1.0-beta,2013-04-09 21:22:00,
2013-04-09 15:28:00,25.7,13.8,30.11,NE,34,11.0,11.0,60,0.00,,,0.05,32767.00,ALWS 1.0-beta,2013-04-09 21:28:00,
2013-04-09 15:33:00,25.7,13.4,30.11,NW,325,14.0,14.0,59,0.00,,,0.05,32767.00,ALWS 1.0-beta,2013-04-09 21:33:00,
2013-04-09 15:38:00,25.9,13.2,30.11,NNE,19,17.0,17.0,58,0.00,,,0.05,32767.00,ALWS 1.0-beta,2013-04-09 21:38:00,
2013-04-09 15:43:00,26.0,13.3,30.11,NE,42,12.0,12.0,58,0.00,,,0.05,32767.00,ALWS 1.0-beta,2013-04-09 21:43:00,
2013-04-09 15:48:00,26.0,12.5,30.11,NNE,32,23.0,23.0,56,0.00,,,0.05,32767.00,ALWS 1.0-beta,2013-04-09 21:48:00,
2013-04-09 15:53:00,26.1,13.4,30.11,North,5,23.0,23.0,58,0.00,,,0.05,32767.00,ALWS 1.0-beta,2013-04-09 21:53:00,
2013-04-09 15:58:00,26.2,12.7,30.11,NNE,29,16.0,16.0,56,0.00,,,0.05,32767.00,ALWS 1.0-beta,2013-04-09 21:58:00,
2013-04-09 16:03:00,26.3,13.1,30.12,NE,35,15.0,22.0,57,0.00,,,0.05,32767.00,ALWS 1.0-beta,2013-04-09 22:03:00,
2013-04-09 16:08:00,26.6,13.0,30.13,NE,42,19.0,19.0,56,0.00,,,0.05,32767.00,ALWS 1.0-beta,2013-04-09 22:08:00,
2013-04-09 16:13:00,26.9,13.7,30.13,NNE,32,12.0,18.0,57,0.00,,,0.05,32767.00,ALWS 1.0-beta,2013-04-09 22:13:00,
2013-04-09 16:18:00,27.2,13.6,30.13,NE,49,13.0,21.0,56,0.00,,,0.05,32767.00,ALWS 1.0-beta,2013-04-09 22:18:00,
2013-04-09 16:23:00,27.2,12.8,30.13,NNE,32,16.0,17.0,54,0.00,,,0.05,32767.00,ALWS 1.0-beta,2013-04-09 22:23:00,
2013-04-09 16:28:00,27.3,12.9,30.13,North,360,16.0,26.0,54,0.00,,,0.05,32767.00,ALWS 1.0-beta,2013-04-09 22:28:00,
2013-04-09 16:33:00,27.0,12.6,30.13,NNE,13,15.0,30.0,54,0.00,,,0.05,32767.00,ALWS 1.0-beta,2013-04-09 22:33:00,
2013-04-09 16:38:00,27.2,13.6,30.14,NNE,26,14.0,21.0,56,0.00,,,0.05,32767.00,ALWS 1.0-beta,2013-04-09 22:38:00,
2013-04-09 16:43:00,27.2,13.2,30.14,North,11,5.0,23.0,55,0.00,,,0.05,32767.00,ALWS 1.0-beta,2013-04-09 22:43:00,
2013-04-09 16:48:00,27.3,12.9,30.14,North,360,20.0,23.0,54,0.00,,,0.05,32767.00,ALWS 1.0-beta,2013-04-09 22:48:00,
2013-04-09 16:53:00,27.0,13.0,30.15,North,9,21.0,23.0,55,0.00,,,0.05,32767.00,ALWS 1.0-beta,2013-04-09 22:53:00,
2013-04-09 16:58:00,27.1,13.1,30.15,NNE,32,14.0,28.0,55,0.00,,,0.05,32767.00,ALWS 1.0-beta,2013-04-09 22:58:00,
2013-04-09 17:03:00,27.2,13.2,30.16,NNE,29,17.0,26.0,55,0.00,,,0.05,32767.00,ALWS 1.0-beta,2013-04-09 23:03:00,
2013-04-09 17:09:00,27.5,12.6,30.16,NNE,26,17.0,17.0,53,0.00,,,0.05,32767.00,ALWS 1.0-beta,2013-04-09 23:09:00,
2013-04-09 17:14:00,27.8,12.5,30.16,NNW,341,19.0,23.0,52,0.00,,,0.05,32767.00,ALWS 1.0-beta,2013-04-09 23:14:00,
2013-04-09 17:19:00,28.3,12.9,30.17,North,360,16.0,27.0,52,0.00,,,0.05,32767.00,ALWS 1.0-beta,2013-04-09 23:19:00,
2013-04-09 17:24:00,28.6,12.3,30.17,NNE,30,16.0,25.0,50,0.00,,,0.05,32767.00,ALWS 1.0-beta,2013-04-09 23:24:00,
2013-04-09 17:29:00,28.8,12.5,30.17,NNW,344,12.0,25.0,50,0.00,,,0.05,32767.00,ALWS 1.0-beta,2013-04-09 23:29:00,
2013-04-09 17:34:00,29.0,12.7,30.17,NNW,345,7.0,19.0,50,0.00,,,0.05,32767.00,ALWS 1.0-beta,2013-04-09 23:34:00,
2013-04-09 17:39:00,29.2,12.0,30.17,NNE,28,22.0,24.0,48,0.00,,,0.05,32767.00,ALWS 1.0-beta,2013-04-09 23:39:00,
2013-04-09 17:44:00,29.4,13.5,30.18,NNW,346,7.0,21.0,51,0.00,,,0.05,32767.00,ALWS 1.0-beta,2013-04-09 23:44:00,
2013-04-09 17:49:00,29.4,13.5,30.18,North,5,13.0,21.0,51,0.00,,,0.05,32767.00,ALWS 1.0-beta,2013-04-09 23:49:00,
2013-04-09 17:54:00,29.4,13.5,30.19,North,355,16.0,19.0,51,0.00,,,0.05,32767.00,ALWS 1.0-beta,2013-04-09 23:54:00,
2013-04-09 17:59:00,28.7,12.0,30.20,NNE,19,7.0,27.0,49,0.00,,,0.05,32767.00,ALWS 1.0-beta,2013-04-09 23:59:00,
2013-04-09 18:04:00,28.3,12.9,30.20,North,360,11.0,21.0,52,0.00,,,0.05,32767.00,ALWS 1.0-beta,2013-04-10 00:04:00,
2013-04-09 18:09:00,28.0,13.1,30.20,NNW,344,21.0,25.0,53,0.00,,,0.05,32767.00,ALWS 1.0-beta,2013-04-10 00:09:00,
2013-04-09 18:14:00,27.5,12.6,30.20,North,355,18.0,25.0,53,0.00,,,0.05,32767.00,ALWS 1.0-beta,2013-04-10 00:14:00,
2013-04-09 18:19:00,27.2,12.8,30.20,NNW,329,20.0,25.0,54,0.00,,,0.05,32767.00,ALWS 1.0-beta,2013-04-10 00:19:00,
2013-04-09 18:24:00,26.8,12.8,30.21,NNW,331,17.0,20.0,55,0.00,,,0.05,32767.00,ALWS 1.0-beta,2013-04-10 00:24:00,
2013-04-09 18:29:00,26.5,12.5,30.21,NNE,20,10.0,21.0,55,0.00,,,0.05,32767.00,ALWS 1.0-beta,2013-04-10 00:29:00,
2013-04-09 18:34:00,26.8,13.2,30.21,North,360,12.0,18.0,56,0.00,,,0.05,32767.00,ALWS 1.0-beta,2013-04-10 00:34:00,
2013-04-09 18:39:00,26.2,12.7,30.22,North,351,11.0,22.0,56,0.00,,,0.05,32767.00,ALWS 1.0-beta,2013-04-10 00:39:00,
2013-04-09 18:44:00,26.1,12.6,30.22,NNW,342,11.0,21.0,56,0.00,,,0.05,32767.00,ALWS 1.0-beta,2013-04-10 00:44:00,
2013-04-09 18:49:00,26.5,13.3,30.22,NNE,23,13.0,18.0,57,0.00,,,0.05,32767.00,ALWS 1.0-beta,2013-04-10 00:49:00,
2013-04-09 18:54:00,26.6,13.0,30.22,North,5,8.0,23.0,56,0.00,,,0.05,32767.00,ALWS 1.0-beta,2013-04-10 00:54:00,
2013-04-09 18:59:00,26.7,13.1,30.22,NNW,340,13.0,19.0,56,0.00,,,0.05,32767.00,ALWS 1.0-beta,2013-04-10 00:59:00,
2013-04-09 19:04:00,26.6,13.8,30.23,NNW,346,14.0,25.0,58,0.00,,,0.05,32767.00,ALWS 1.0-beta,2013-04-10 01:04:00,
2013-04-09 19:09:00,26.6,12.6,30.22,North,360,10.0,22.0,55,0.00,,,0.05,32767.00,ALWS 1.0-beta,2013-04-10 01:09:00,
2013-04-09 19:14:00,26.5,12.9,30.23,NNE,24,16.0,17.0,56,0.00,,,0.05,32767.00,ALWS 1.0-beta,2013-04-10 01:14:00,
2013-04-09 19:19:00,26.2,12.7,30.23,NNE,28,17.0,21.0,56,0.00,,,0.05,32767.00,ALWS 1.0-beta,2013-04-10 01:19:00,
2013-04-09 19:24:00,25.9,12.8,30.23,North,5,12.0,18.0,57,0.00,,,0.05,32767.00,ALWS 1.0-beta,2013-04-10 01:24:00,
2013-04-09 19:29:00,25.8,12.7,30.24,NNE,33,6.0,18.0,57,0.00,,,0.05,32767.00,ALWS 1.0-beta,2013-04-10 01:29:00,
2013-04-09 19:34:00,25.7,12.2,30.24,North,351,12.0,21.0,56,0.00,,,0.05,32767.00,ALWS 1.0-beta,2013-04-10 01:34:00,
2013-04-09 19:39:00,25.4,12.3,30.24,NNE,14,6.0,20.0,57,0.00,,,0.05,32767.00,ALWS 1.0-beta,2013-04-10 01:39:00,
2013-04-09 19:44:00,25.2,12.1,30.25,North,350,7.0,21.0,57,0.00,,,0.05,32767.00,ALWS 1.0-beta,2013-04-10 01:44:00,
2013-04-09 19:49:00,24.8,12.1,30.24,NNW,344,10.0,17.0,58,0.00,,,0.05,32767.00,ALWS 1.0-beta,2013-04-10 01:49:00,
2013-04-09 19:54:00,24.5,11.9,30.25,NNE,28,15.0,19.0,58,0.00,,,0.05,32767.00,ALWS 1.0-beta,2013-04-10 01:54:00,
2013-04-09 19:59:00,24.2,11.9,30.25,NNW,344,13.0,17.0,59,0.00,,,0.05,32767.00,ALWS 1.0-beta,2013-04-10 01:59:00,
2013-04-09 20:04:00,24.0,12.1,30.25,NNE,15,9.0,22.0,60,0.00,,,0.05,32767.00,ALWS 1.0-beta,2013-04-10 02:04:00,
2013-04-09 20:09:00,23.8,12.0,30.26,NNW,346,6.0,15.0,60,0.00,,,0.05,32767.00,ALWS 1.0-beta,2013-04-10 02:09:00,
2013-04-09 20:14:00,23.7,11.5,30.26,NNW,348,5.0,23.0,59,0.00,,,0.05,32767.00,ALWS 1.0-beta,2013-04-10 02:14:00,
2013-04-09 20:19:00,23.7,11.5,30.26,North,355,4.0,16.0,59,0.00,,,0.05,32767.00,ALWS 1.0-beta,2013-04-10 02:19:00,
2013-04-09 20:24:00,23.6,11.4,30.26,North,360,3.0,18.0,59,0.00,,,0.05,32767.00,ALWS 1.0-beta,2013-04-10 02:24:00,
2013-04-09 20:29:00,24.0,11.4,30.26,North,10,16.0,23.0,58,0.00,,,0.05,32767.00,ALWS 1.0-beta,2013-04-10 02:29:00,
2013-04-09 20:34:00,24.2,11.6,30.27,NNW,337,5.0,19.0,58,0.00,,,0.05,32767.00,ALWS 1.0-beta,2013-04-10 02:34:00,
2013-04-09 20:39:00,24.2,11.2,30.27,NNW,340,12.0,25.0,57,0.00,,,0.05,32767.00,ALWS 1.0-beta,2013-04-10 02:39:00,
2013-04-09 20:44:00,24.2,11.2,30.27,NNW,338,16.0,28.0,57,0.00,,,0.05,32767.00,ALWS 1.0-beta,2013-04-10 02:44:00,
2013-04-09 20:49:00,24.5,11.1,30.28,NNW,336,15.0,26.0,56,0.00,,,0.05,32767.00,ALWS 1.0-beta,2013-04-10 02:49:00,
2013-04-09 20:54:00,24.6,11.2,30.28,NNW,342,14.0,23.0,56,0.00,,,0.05,32767.00,ALWS 1.0-beta,2013-04-10 02:54:00,
2013-04-09 20:59:00,24.3,10.9,30.28,NNW,338,11.0,22.0,56,0.00,,,0.05,32767.00,ALWS 1.0-beta,2013-04-10 02:59:00,
2013-04-09 21:04:00,24.3,10.9,30.28,NNW,336,15.0,19.0,56,0.00,,,0.05,32767.00,ALWS 1.0-beta,2013-04-10 03:04:00,
2013-04-09 21:09:00,23.8,10.8,30.28,NNW,331,15.0,19.0,57,0.00,,,0.05,32767.00,ALWS 1.0-beta,2013-04-10 03:09:00,
2013-04-09 21:14:00,23.6,10.6,30.29,NNW,340,14.0,23.0,57,0.00,,,0.05,32767.00,ALWS 1.0-beta,2013-04-10 03:14:00,
2013-04-09 21:19:00,23.3,10.7,30.30,NNW,348,11.0,16.0,58,0.00,,,0.05,32767.00,ALWS 1.0-beta,2013-04-10 03:19:00,
2013-04-09 21:24:00,23.1,10.9,30.30,North,10,6.0,16.0,59,0.00,,,0.05,32767.00,ALWS 1.0-beta,2013-04-10 03:24:00,
2013-04-09 21:29:00,23.0,10.8,30.30,NNW,327,15.0,18.0,59,0.00,,,0.05,32767.00,ALWS 1.0-beta,2013-04-10 03:29:00,
2013-04-09 21:34:00,23.0,10.8,30.30,NNE,25,14.0,20.0,59,0.00,,,0.05,32767.00,ALWS 1.0-beta,2013-04-10 03:34:00,
2013-04-09 21:39:00,23.3,10.7,30.31,East,92,4.0,16.0,58,0.00,,,0.05,32767.00,ALWS 1.0-beta,2013-04-10 03:39:00,
2013-04-09 21:44:00,22.9,10.3,30.31,NE,34,5.0,12.0,58,0.00,,,0.05,32767.00,ALWS 1.0-beta,2013-04-10 03:44:00,
2013-04-09 21:49:00,23.0,10.4,30.32,NE,56,6.0,10.0,58,0.00,,,0.05,32767.00,ALWS 1.0-beta,2013-04-10 03:49:00,
2013-04-09 21:54:00,22.8,10.2,30.32,NE,49,10.0,10.0,58,0.00,,,0.05,32767.00,ALWS 1.0-beta,2013-04-10 03:54:00,
2013-04-09 21:59:00,23.0,10.4,30.33,ENE,65,10.0,14.0,58,0.00,,,0.05,32767.00,ALWS 1.0-beta,2013-04-10 03:59:00,
2013-04-09 22:00:00,23.1,10.5,30.33,ENE,69,3.0,3.0,58,0.00,,,0.05,32767.00,ALWS 1.0-beta,2013-04-10 04:00:00,
2013-04-09 22:05:00,23.3,10.7,30.33,NNW,345,5.0,12.0,58,0.00,,,0.05,32767.00,ALWS 1.0-beta,2013-04-10 04:05:00,
2013-04-09 22:10:00,23.6,10.6,30.33,NE,40,4.0,6.0,57,0.00,,,0.05,32767.00,ALWS 1.0-beta,2013-04-10 04:10:00,
2013-04-09 22:15:00,23.5,10.5,30.34,ENE,69,6.0,11.0,57,0.00,,,0.05,32767.00,ALWS 1.0-beta,2013-04-10 04:15:00,
2013-04-09 22:20:00,23.3,10.7,30.34,ENE,64,3.0,4.0,58,0.00,,,0.05,32767.00,ALWS 1.0-beta,2013-04-10 04:20:00,
2013-04-09 22:25:00,23.4,10.8,30.34,NE,46,4.0,7.0,58,0.00,,,0.05,32767.00,ALWS 1.0-beta,2013-04-10 04:25:00,
2013-04-09 22:30:00,23.6,10.6,30.34,NE,40,9.0,9.0,57,0.00,,,0.05,32767.00,ALWS 1.0-beta,2013-04-10 04:30:00,
2013-04-09 22:35:00,23.2,10.2,30.35,East,88,4.0,5.0,57,0.00,,,0.05,32767.00,ALWS 1.0-beta,2013-04-10 04:35:00,
2013-04-09 22:40:00,22.9,10.3,30.35,ESE,117,3.0,4.0,58,0.00,,,0.05,32767.00,ALWS 1.0-beta,2013-04-10 04:40:00,
2013-04-09 22:45:00,22.2,10.4,30.35,South,169,6.0,8.0,60,0.00,,,0.05,32767.00,ALWS 1.0-beta,2013-04-10 04:45:00,
2013-04-09 22:50:00,21.4,10.4,30.35,South,172,0.0,0.0,62,0.00,,,0.05,32767.00,ALWS 1.0-beta,2013-04-10 04:50:00,
2013-04-09 22:55:00,20.9,10.6,30.35,South,172,0.0,0.0,64,0.00,,,0.05,32767.00,ALWS 1.0-beta,2013-04-10 04:55:00,
2013-04-09 23:00:00,20.9,11.0,30.35,South,172,0.0,0.0,65,0.00,,,0.05,32767.00,ALWS 1.0-beta,2013-04-10 05:00:00,
2013-04-09 23:05:00,20.8,10.9,30.35,South,172,0.0,0.0,65,0.00,,,0.05,32767.00,ALWS 1.0-beta,2013-04-10 05:05:00,
2013-04-09 23:10:00,21.0,11.1,30.36,South,172,0.0,0.0,65,0.00,,,0.05,32767.00,ALWS 1.0-beta,2013-04-10 05:10:00,
2013-04-09 23:15:00,21.1,11.2,30.36,South,172,0.0,0.0,65,0.00,,,0.05,32767.00,ALWS 1.0-beta,2013-04-10 05:15:00,
2013-04-09 23:20:00,21.5,11.2,30.36,South,172,0.0,0.0,64,0.00,,,0.05,32767.00,ALWS 1.0-beta,2013-04-10 05:20:00,
2013-04-09 23:25:00,21.6,11.3,30.36,South,172,0.0,0.0,64,0.00,,,0.05,32767.00,ALWS 1.0-beta,2013-04-10 05:25:00,
2013-04-09 23:30:00,21.4,11.1,30.36,South,172,0.0,0.0,64,0.00,,,0.05,32767.00,ALWS 1.0-beta,2013-04-10 05:30:00,
2013-04-09 23:35:00,21.3,11.0,30.37,South,172,0.0,0.0,64,0.00,,,0.05,32767.00,ALWS 1.0-beta,2013-04-10 05:35:00,
2013-04-09 23:40:00,21.3,11.0,30.37,SSW,198,3.0,4.0,64,0.00,,,0.05,32767.00,ALWS 1.0-beta,2013-04-10 05:40:00,
2013-04-09 23:45:00,21.6,11.3,30.37,SW,227,0.0,5.0,64,0.00,,,0.05,32767.00,ALWS 1.0-beta,2013-04-10 05:45:00,
2013-04-09 23:50:00,21.5,10.9,30.37,SW,227,0.0,0.0,63,0.00,,,0.05,32767.00,ALWS 1.0-beta,2013-04-10 05:50:00,
2013-04-09 23:55:00,21.3,11.0,30.38,SW,226,0.0,5.0,64,0.00,,,0.05,32767.00,ALWS 1.0-beta,2013-04-10 05:55:00,